Regional Weather Roundup
Issued by NWS Sterling, VA

Home | Current Version | Previous Version | Text Only | Print | Product List | Glossary On
Versions: 1 2 3 4 5 6 7 8 9 10 11 12 13 14 15 16 17 18 19 20 21 22 23 24 25 26 27 28
000
ASUS41 KLWX 211911
RWRLWX

REGIONAL WEATHER ROUNDUP
NATIONAL WEATHER SERVICE BALTIMORE MD/WASHINGTON DC
300 PM EDT SAT APR 21 2018

Note: "FAIR" indicates few or no clouds below 12,000 feet
with no significant weather and/or obstructions to visibility.
 TC=TEMPERATURE CELSIUS

 * =Non NWS site. Station does not report precipitation (e.g. rain,
    snow, etc.), thunder, or fog.

DCZ001-MDZ009-015-VAZ040>042-051-053>054-212000-
WASHINGTON METRO

CITY           SKY/WX    TMP DP  RH WIND       PRES   REMARKS
WASHINGTON NAT PTSUNNY   59  29  31 SE6       30.38F
DULLES         PTSUNNY   60  27  28 NW7       30.38F
ANDREWS AFB    FAIR      59  27  29 W8        30.37F
FT BELVOIR     FAIR      60  29  31 SE9       30.38F
QUANTICO       FAIR      58  35  42 SE6       30.40F
COLLEGE PARK*  FAIR      59  26  29 W9        30.37F
LEESBURG*      FAIR      61  32  33 CALM      30.38F
MANASSAS*      FAIR      61  28  28 N8        30.38F
GAITHERSBURG*  FAIR      60  28  29 VRB6      30.38F

$$

MDZ006>007-011-014-212000-
BALTIMORE METRO

CITY           SKY/WX    TMP DP  RH WIND       PRES   REMARKS
BWI AIRPORT    PTSUNNY   60  26  27 VRB5      30.36F
MD SCIENCE CTR   N/A     60  21  22 MISG      30.37F
MARTIN STATE   PTSUNNY   57  36  44 SE8       30.39F
ANNAPOLIS      FAIR      55  39  54 SE10      30.39F
FORT MEADE*    FAIR      59  27  29 W7        30.39F

$$

MDZ012-015-019>023-212000-
MARYLAND EASTERN SHORE

CITY           SKY/WX    TMP DP  RH WIND       PRES   REMARKS
OCEAN CITY     FAIR      50  33  52 VRB7      30.40F
SALISBURY      FAIR      57  27  31 NW5       30.38F
BAY BRIDGE AP* FAIR      57  32  38 S3        30.39F
CAMBRIDGE*     SUNNY     55  27  33 NW9G17    30.39F
EASTON*        MOSUNNY   59  27  29 N6        30.42F

$$

MDZ017>025-212000-
SOUTHERN MARYLAND

CITY           SKY/WX    TMP DP  RH WIND       PRES   REMARKS
PATUXENT RIVER FAIR      56  34  43 SE13      30.39F
ST INIGOES     FAIR      55  30  38 VRB6      30.39F
LEONARDTOWN*   FAIR      55  32  41 SW8       30.40

$$

MDZ003>005-212000-
NORTH CENTRAL MARYLAND

CITY           SKY/WX    TMP DP  RH WIND       PRES   REMARKS
FREDERICK*     SUNNY     57  18  21 CALM      30.40F
HAGERSTOWN APT FAIR      56  27  32 VRB3      30.37F
WESTMINSTER*   FAIR      57  28  33 NW8       30.37F

$$

MDZ501>502-212000-
WESTERN MARYLAND

CITY           SKY/WX    TMP DP  RH WIND       PRES   REMARKS
OAKLAND*       FAIR      52  12  20 N6        30.34S
CUMBERLAND*    FAIR      64  27  24 CALM      30.39F

$$

VAZ025>031-212000-
SHENANDOAH VALLEY

CITY           SKY/WX    TMP DP  RH WIND       PRES   REMARKS
WINCHESTER*    FAIR      55  25  30 CALM      30.38F
FRONT ROYAL*   FAIR      59  28  31 NE5       30.35F
LURAY*         FAIR      61  28  29 S6        30.34F
NEW MARKET*    FAIR      61  24  24 CALM      30.33F
STAUNTON*      FAIR      60  29  32 CALM      30.36F
WAYNESBORO*    FAIR      60  26  26 CALM      30.34F

$$

WVZ021-048>050-054>055-212000-
EASTERN WEST VIRGINIA PANHANDLE

CITY           SKY/WX    TMP DP  RH WIND       PRES   REMARKS
MARTINSBURG    FAIR      59  25  27 VRB3      30.36F
PETERSBURG*    FAIR      61  26  25 CALM      30.33F

$$

VAZ036>039-050-212000-
CENTRAL FOOTHILLS

CITY           SKY/WX    TMP DP  RH WIND       PRES   REMARKS
CHARLOTTESVILL FAIR      64  29  26 S6        30.35F
CULPEPER*      FAIR      61  28  28 SW6       30.39F
ORANGE*        FAIR      59  32  36 CALM      30.37F
GORDONSVILLE*  FAIR      61  30  30 S3        30.36F
WARRENTON*     FAIR      62  24  23 SW6       30.37F

$$

VAZ055>057-212000-
NORTH AND CENTRAL PIEDMONT

CITY           SKY/WX    TMP DP  RH WIND       PRES   REMARKS
FREDERICKSBRG* FAIR      62  31  31 CALM      30.37F
STAFFORD*      FAIR      62  28  28 CALM      30.41F

$$

NCZ024-NYZ072-PAZ021-071-VAZ022-071-212000-
OTHER REGIONAL OBSERVATIONS

CITY           SKY/WX    TMP DP  RH WIND       PRES   REMARKS
NEW YORK CITY  FAIR      59  20  22 NW9       30.31F
PHILADELPHIA   PTSUNNY   58  25  28 CALM      30.35F
PITTSBURGH     CLOUDY    54  23  30 VRB3      30.39F
ROANOKE        FAIR      63  30  28 VRB6      30.35F
RICHMOND       FAIR      62  29  28 VRB3      30.38F
RALEIGH        FAIR      67  38  34 CALM      30.37F

$$

ANZ530>537-212000-
MARINE OBSERVATIONS

STATION/POSITION TIME  TEMP    WIND        PRES
                       AIR SEA DIR/SP/G
                 (UTC) (F)     (DEG/KT/KT) (MB)
THOMAS PT LIGHT  1900   49 51  150/  7/  8 1030.0F
BALT KEY BRIDGE  1848   56     330/  3/  3 1028.6F
COVE POINT       1848   49     170/  8/ 10 1030.0F
LEWISETTA        1848   50 54   90/  7/  8 1029.5F
SOLOMONS ISLAND  1848   51 53  120/  9/ 11 1029.0F
PINEY POINT      1848          170/  5/  6   N/A

$$





USA.gov is the U.S. government's official web portal to all federal, state and local government web resources and services.